Torna al catalogo

SL-19 DEB

AttivoUNKNOWN
NORAD 23488·DEBRIS·🇷🇺 Russia

Lanciato Dec 26, 1994 da Baikonur Cosmodrome

Loading…

Prossimi Passaggi (prossime 24 ore)

TLE

AggiornatoSource: Space-Track

Epoca: Sep 14, 2026, 13:30 UTC

1 23488U 94085L   26257.56286422 -.00001308  00000-0 -34248-1 0  9994
2 23488  65.0012 293.8871 0214220  98.1317  53.0505 11.29709788305029

Traccia SL-19 DEB in tempo reale con AllMySat

Download on the App Store